ONEWEB-0031 (45431 NORAD) Tracking and Keplerian Element Data

This shows tracking and keplerian element data for the satellite.

Feedback or suggestion? Click here.




ElementValue
Catalog45431
NameONEWEB-0031
Epoch Orbit1739
Epoch Day197.25001157
Epoch Year2020
RAAN101.3484
Inclination87.5541
Eccentricity0.0023755
Argument of Perigee234.8537
Mean Anonmoly356.763
Mean Motion14.89739901
Decay Rate-3.157E-05
L11 45431U 20020H 20197.25001157 -.00003157 00000-0 -33137-3 0 9999
L22 45431 87.5541 101.3484 0023755 234.8537 356.7630 14.89739901 17395

Live tracking and technical data element details for ONEWEB-0031 (NORAD 45431). ONEWEB-0031 can be tracked NOW for your location showing map with azimuth and elevation plus other details from your city location.

Track the satellite on the map from your city or location and see movement details for azimuth, elevation, latitude, longitude, range, height, and movement on the map or in text.







IsCatalogInMostPopularTable: catalog: 45431, numindb: 23
Update: records affected: 1



GetName: 45431 ONEWEB-0031

Hit Count: updated at: Thu, 16 Jul 2020 03:01:16 GMT